"Period start","avg(HW err(1)/warn(2) (#))","avg(Visibility (m))","avg(Weather code (#))","avg(Precip intensity (mm/h))","min(HW err(1)/warn(2) (#))","max(HW err(1)/warn(2) (#))","std(HW err(1)/warn(2) (#))","med(HW err(1)/warn(2) (#))","min(Visibility (m))","max(Visibility (m))","std(Visibility (m))","med(Visibility (m))","min(Weather code (#))","max(Weather code (#))","std(Weather code (#))","med(Weather code (#))","min(Precip intensity (mm/h))","max(Precip intensity (mm/h))","std(Precip intensity (mm/h))","med(Precip intensity (mm/h))"
2013-08-11 00:00:00,0,39987,0,0.00,0,0,0,0,26451,49370,7257,42012,0,0,0,0,0.00,0.00,0.00,0.00
2013-08-11 00:10:00,0,42576,0,0.00,0,0,0,0,29808,50000,6890,42839,0,0,0,0,0.00,0.00,0.00,0.00
2013-08-11 00:20:00,0,50000,0,0.00,0,0,0,0,50000,50000,0,50000,0,0,0,0,0.00,0.00,0.00,0.00
2013-08-11 00:30:00,0,43802,0,0.00,0,0,0,0,34085,49844,4753,43556,0,0,0,0,0.00,0.00,0.00,0.00
2013-08-11 00:40:00,0,43499,0,0.00,0,0,0,0,32077,50000,5946,45044,0,0,0,0,0.00,0.00,0.00,0.00
2013-08-11 00:50:00,0,45326,0,0.00,0,0,0,0,41521,50000,3079,43969,0,0,0,0,0.00,0.00,0.00,0.00
2013-08-11 01:00:00,0,44670,0,0.00,0,0,0,0,38170,50000,4438,45248,0,0,0,0,0.00,0.00,0.00,0.00
2013-08-11 01:10:00,0,43140,0,0.00,0,0,0,0,35468,50000,4711,42926,0,0,0,0,0.00,0.00,0.00,0.00
2013-08-11 01:20:00,0,41028,0,0.00,0,0,0,0,28551,50000,7600,42824,0,0,0,0,0.00,0.00,0.00,0.00
2013-08-11 01:30:00,0,41225,0,0.00,0,0,0,0,29000,50000,6410,42614,0,0,0,0,0.00,0.00,0.00,0.00
2013-08-11 01:40:00,0,40975,0,0.00,0,0,0,0,33328,50000,5736,39880,0,0,0,0,0.00,0.00,0.00,0.00
2013-08-11 01:50:00,0,48121,0,0.00,0,0,0,0,43474,50000,2440,49252,0,0,0,0,0.00,0.00,0.00,0.00
2013-08-11 02:00:00,0,46346,0,0.00,0,0,0,0,40370,50000,3480,47098,0,0,0,0,0.00,0.00,0.00,0.00
2013-08-11 02:10:00,0,46142,0,0.00,0,0,0,0,35362,50000,5334,49176,0,0,0,0,0.00,0.00,0.00,0.00
2013-08-11 02:20:00,0,44961,0,0.00,0,0,0,0,37744,50000,4030,44086,0,0,0,0,0.00,0.00,0.00,0.00
2013-08-11 02:30:00,0,36899,0,0.00,0,0,0,0,27645,44860,4728,36277,0,0,0,0,0.00,0.00,0.00,0.00
2013-08-11 02:40:00,0,46890,0,0.00,0,0,0,0,38610,50000,4226,49876,0,0,0,0,0.00,0.00,0.00,0.00
2013-08-11 02:50:00,0,43751,0,0.00,0,0,0,0,31648,50000,5811,43624,0,0,0,0,0.00,0.00,0.00,0.00
2013-08-11 03:00:00,0,38821,0,0.00,0,0,0,0,16877,49121,10193,41612,0,0,0,0,0.00,0.00,0.00,0.00
2013-08-11 03:10:00,0,45574,0,0.00,0,0,0,0,37783,50000,3851,45826,0,0,0,0,0.00,0.00,0.00,0.00
2013-08-11 03:20:00,0,41715,0,0.00,0,0,0,0,21210,49278,7342,42670,0,0,0,0,0.00,0.00,0.00,0.00
2013-08-11 03:30:00,0,45758,0,0.00,0,0,0,0,30252,50000,6075,49228,0,0,0,0,0.00,0.00,0.00,0.00
2013-08-11 03:40:00,0,47411,0,0.00,0,0,0,0,41289,50000,3292,49289,0,0,0,0,0.00,0.00,0.00,0.00
2013-08-11 03:50:00,0,38203,0,0.00,0,0,0,0,7740,50000,14709,45256,0,0,0,0,0.00,0.00,0.00,0.00
2013-08-11 04:00:00,0,44639,0,0.00,0,0,0,0,37181,50000,4260,45060,0,0,0,0,0.00,0.00,0.00,0.00
2013-08-11 04:10:00,0,36388,0,0.00,0,0,0,0,18774,49384,10498,38445,0,0,0,0,0.00,0.00,0.00,0.00
2013-08-11 04:20:00,0,42262,0,0.00,0,0,0,0,37723,47992,3230,41926,0,0,0,0,0.00,0.00,0.00,0.00
2013-08-11 04:30:00,0,45512,0,0.00,0,0,0,0,39627,50000,3660,44916,0,0,0,0,0.00,0.00,0.00,0.00
2013-08-11 04:40:00,0,46541,0,0.00,0,0,0,0,37584,50000,4383,49702,0,0,0,0,0.00,0.00,0.00,0.00
2013-08-11 04:50:00,0,48172,0,0.00,0,0,0,0,39703,50000,3183,49842,0,0,0,0,0.00,0.00,0.00,0.00
2013-08-11 05:00:00,0,44911,0,0.00,0,0,0,0,35405,50000,4829,46412,0,0,0,0,0.00,0.00,0.00,0.00
2013-08-11 05:10:00,0,48610,0,0.00,0,0,0,0,44850,50000,2140,50000,0,0,0,0,0.00,0.00,0.00,0.00
2013-08-11 05:20:00,0,40734,0,0.00,0,0,0,0,8938,50000,13461,48368,0,0,0,0,0.00,0.00,0.00,0.00
2013-08-11 05:30:00,0,43168,0,0.00,0,0,0,0,33391,50000,5796,43426,0,0,0,0,0.00,0.00,0.00,0.00
2013-08-11 05:40:00,0,38482,0,0.00,0,0,0,0,22024,50000,9544,40088,0,0,0,0,0.00,0.00,0.00,0.00
2013-08-11 05:50:00,0,48738,0,0.00,0,0,0,0,44041,50000,2086,50000,0,0,0,0,0.00,0.00,0.00,0.00
2013-08-11 06:00:00,0,41501,0,0.00,0,0,0,0,13387,50000,11156,46556,0,0,0,0,0.00,0.00,0.00,0.00
2013-08-11 06:10:00,0,37841,0,0.00,0,0,0,0,9207,50000,12383,42094,0,0,0,0,0.00,0.00,0.00,0.00
2013-08-11 06:20:00,0,35002,0,0.00,0,0,0,0,7800,50000,18057,45492,0,0,0,0,0.00,0.00,0.00,0.00
2013-08-11 06:30:00,0,49006,0,0.00,0,0,0,0,44728,50000,1593,50000,0,0,0,0,0.00,0.00,0.00,0.00
2013-08-11 06:40:00,0,46245,0,0.00,0,0,0,0,36050,50000,4929,48752,0,0,0,0,0.00,0.00,0.00,0.00
2013-08-11 06:50:00,0,46323,0,0.00,0,0,0,0,41670,50000,2536,46142,0,0,0,0,0.00,0.00,0.00,0.00
2013-08-11 07:00:00,0,48683,0,0.00,0,0,0,0,45625,50000,1603,49608,0,0,0,0,0.00,0.00,0.00,0.00
2013-08-11 07:10:00,0,48818,0,0.00,0,0,0,0,44214,50000,1875,50000,0,0,0,0,0.00,0.00,0.00,0.00
2013-08-11 07:20:00,0,47548,0,0.00,0,0,0,0,35893,50000,4224,49372,0,0,0,0,0.00,0.00,0.00,0.00
2013-08-11 07:30:00,0,48116,0,0.00,0,0,0,0,42198,50000,2350,48838,0,0,0,0,0.00,0.00,0.00,0.00
2013-08-11 07:40:00,0,43446,0,0.00,0,0,0,0,36500,50000,4579,43656,0,0,0,0,0.00,0.00,0.00,0.00
2013-08-11 07:50:00,0,43325,0,0.00,0,0,0,0,30160,50000,6928,46239,0,0,0,0,0.00,0.00,0.00,0.00
2013-08-11 08:00:00,0,41097,0,0.00,0,0,0,0,10222,50000,14149,48890,0,0,0,0,0.00,0.00,0.00,0.00
2013-08-11 08:10:00,0,41462,0,0.00,0,0,0,0,24153,50000,6818,41729,0,0,0,0,0.00,0.00,0.00,0.00
2013-08-11 08:20:00,0,35360,0,0.00,0,0,0,0,19963,44561,7211,36924,0,0,0,0,0.00,0.00,0.00,0.00
2013-08-11 08:30:00,0,45388,0,0.00,0,0,0,0,37711,50000,4385,46328,0,0,0,0,0.00,0.00,0.00,0.00
2013-08-11 08:40:00,0,46084,0,0.00,0,0,0,0,35160,50000,4935,48850,0,0,0,0,0.00,0.00,0.00,0.00
2013-08-11 08:50:00,0,44804,0,0.00,0,0,0,0,39607,50000,4260,43886,0,0,0,0,0.00,0.00,0.00,0.00
2013-08-11 09:00:00,0,47428,0,0.00,0,0,0,0,43448,50000,2605,48404,0,0,0,0,0.00,0.00,0.00,0.00
2013-08-11 09:10:00,0,47387,0,0.00,0,0,0,0,26481,50000,7004,50000,0,0,0,0,0.00,0.00,0.00,0.00
2013-08-11 09:20:00,0,45475,0,0.00,0,0,0,0,31254,50000,5749,48166,0,0,0,0,0.00,0.00,0.00,0.00
2013-08-11 09:30:00,0,49084,0,0.00,0,0,0,0,46181,50000,1444,50000,0,0,0,0,0.00,0.00,0.00,0.00
2013-08-11 09:40:00,0,49863,0,0.00,0,0,0,0,48633,50000,410,50000,0,0,0,0,0.00,0.00,0.00,0.00
2013-08-11 09:50:00,0,44332,0,0.00,0,0,0,0,25046,50000,9303,49942,0,0,0,0,0.00,0.00,0.00,0.00
2013-08-11 10:00:00,0,50000,0,0.00,0,0,0,0,50000,50000,0,50000,0,0,0,0,0.00,0.00,0.00,0.00
2013-08-11 10:10:00,0,50000,0,0.00,0,0,0,0,50000,50000,0,50000,0,0,0,0,0.00,0.00,0.00,0.00
2013-08-11 10:20:00,0,44254,0,0.00,0,0,0,0,16513,50000,10543,49969,0,0,0,0,0.00,0.00,0.00,0.00
2013-08-11 10:30:00,0,49736,0,0.00,0,0,0,0,47362,50000,791,50000,0,0,0,0,0.00,0.00,0.00,0.00
2013-08-11 10:40:00,0,49988,0,0.00,0,0,0,0,49875,50000,38,50000,0,0,0,0,0.00,0.00,0.00,0.00
2013-08-11 10:50:00,0,49366,0,0.00,0,0,0,0,44970,50000,1516,50000,0,0,0,0,0.00,0.00,0.00,0.00
2013-08-11 11:00:00,0,49995,0,0.00,0,0,0,0,49953,50000,14,50000,0,0,0,0,0.00,0.00,0.00,0.00
2013-08-11 11:10:00,0,50000,0,0.00,0,0,0,0,50000,50000,0,50000,0,0,0,0,0.00,0.00,0.00,0.00
2013-08-11 11:20:00,0,49983,0,0.00,0,0,0,0,49831,50000,51,50000,0,0,0,0,0.00,0.00,0.00,0.00
2013-08-11 11:30:00,0,50000,0,0.00,0,0,0,0,50000,50000,0,50000,0,0,0,0,0.00,0.00,0.00,0.00
2013-08-11 11:40:00,0,48955,0,0.00,0,0,0,0,43051,50000,2227,50000,0,0,0,0,0.00,0.00,0.00,0.00
2013-08-11 11:50:00,0,50000,0,0.00,0,0,0,0,50000,50000,0,50000,0,0,0,0,0.00,0.00,0.00,0.00
2013-08-11 12:00:00,0,49826,0,0.00,0,0,0,0,48263,50000,521,50000,0,0,0,0,0.00,0.00,0.00,0.00
2013-08-11 12:10:00,0,50000,0,0.00,0,0,0,0,50000,50000,0,50000,0,0,0,0,0.00,0.00,0.00,0.00
2013-08-11 12:20:00,0,49660,0,0.00,0,0,0,0,48124,50000,684,50000,0,0,0,0,0.00,0.00,0.00,0.00
2013-08-11 12:30:00,0,49904,0,0.00,0,0,0,0,49035,50000,290,50000,0,0,0,0,0.00,0.00,0.00,0.00
2013-08-11 12:40:00,0,50000,0,0.00,0,0,0,0,50000,50000,0,50000,0,0,0,0,0.00,0.00,0.00,0.00
2013-08-11 12:50:00,0,50000,0,0.00,0,0,0,0,50000,50000,0,50000,0,0,0,0,0.00,0.00,0.00,0.00
2013-08-11 13:00:00,0,50000,0,0.00,0,0,0,0,50000,50000,0,50000,0,0,0,0,0.00,0.00,0.00,0.00
2013-08-11 13:10:00,0,50000,0,0.00,0,0,0,0,50000,50000,0,50000,0,0,0,0,0.00,0.00,0.00,0.00
2013-08-11 13:20:00,0,50000,0,0.00,0,0,0,0,50000,50000,0,50000,0,0,0,0,0.00,0.00,0.00,0.00
2013-08-11 13:30:00,0,50000,0,0.00,0,0,0,0,50000,50000,0,50000,0,0,0,0,0.00,0.00,0.00,0.00
2013-08-11 13:40:00,0,49992,0,0.00,0,0,0,0,49920,50000,24,50000,0,0,0,0,0.00,0.00,0.00,0.00
2013-08-11 13:50:00,0,49957,0,0.00,0,0,0,0,49570,50000,129,50000,0,0,0,0,0.00,0.00,0.00,0.00
2013-08-11 14:00:00,0,49770,0,0.00,0,0,0,0,47695,50000,692,50000,0,0,0,0,0.00,0.00,0.00,0.00
2013-08-11 14:10:00,0,49903,0,0.00,0,0,0,0,49029,50000,291,50000,0,0,0,0,0.00,0.00,0.00,0.00
2013-08-11 14:20:00,0,49591,0,0.00,0,0,0,0,46393,50000,1076,50000,0,0,0,0,0.00,0.00,0.00,0.00
2013-08-11 14:30:00,0,49266,0,0.00,0,0,0,0,45453,50000,1481,50000,0,0,0,0,0.00,0.00,0.00,0.00
2013-08-11 14:40:00,0,49942,0,0.00,0,0,0,0,49419,50000,174,50000,0,0,0,0,0.00,0.00,0.00,0.00
2013-08-11 14:50:00,0,49664,0,0.00,0,0,0,0,47550,50000,732,50000,0,0,0,0,0.00,0.00,0.00,0.00
2013-08-11 15:00:00,0,49317,0,0.00,0,0,0,0,46991,50000,1011,49928,0,0,0,0,0.00,0.00,0.00,0.00
2013-08-11 15:10:00,0,49339,0,0.00,0,0,0,0,47227,50000,1057,50000,0,0,0,0,0.00,0.00,0.00,0.00
2013-08-11 15:20:00,0,49319,0,0.00,0,0,0,0,45302,50000,1429,50000,0,0,0,0,0.00,0.00,0.00,0.00
2013-08-11 15:30:00,0,49398,0,0.00,0,0,0,0,46873,50000,1020,50000,0,0,0,0,0.00,0.00,0.00,0.00
2013-08-11 15:40:00,0,46174,0,0.00,0,0,0,0,41500,50000,3019,47074,0,0,0,0,0.00,0.00,0.00,0.00
2013-08-11 15:50:00,0,34593,1,0.00,0,2,1,0,391,50000,18679,43424,0,10,3,0,0.00,0.00,0.00,0.00
2013-08-11 16:00:00,0,21238,4,0.00,0,0,0,0,2170,32741,10439,23094,0,10,5,0,0.00,0.00,0.00,0.00
2013-08-11 16:10:00,0,26102,0,0.00,0,0,0,0,10214,34541,8880,31452,0,0,0,0,0.00,0.00,0.00,0.00
2013-08-11 16:20:00,0,33170,0,0.00,0,0,0,0,23019,46912,7396,31773,0,0,0,0,0.00,0.00,0.00,0.00
2013-08-11 16:30:00,0,11892,5,0.00,0,2,1,0,241,44512,14020,6320,0,30,9,0,0.00,0.00,0.00,0.00
2013-08-11 16:40:00,1,14927,34,0.00,0,2,1,2,305,33296,11970,10690,34,34,0,34,0.00,0.00,0.00,0.00
2013-08-11 16:50:00,2,20264,24,0.00,2,2,0,2,3948,32464,10012,22874,20,30,5,20,0.00,0.00,0.00,0.00
2013-08-11 17:00:00,2,38048,20,0.00,2,2,0,2,26328,44468,5735,39947,20,20,0,20,0.00,0.00,0.00,0.00
2013-08-11 17:10:00,2,45009,20,0.00,2,2,0,2,33545,50000,6332,49054,20,20,0,20,0.00,0.00,0.00,0.00
2013-08-11 17:20:00,2,43006,20,0.00,2,2,0,2,35247,50000,5682,42584,20,20,0,20,0.00,0.00,0.00,0.00
2013-08-11 17:30:00,2,48329,20,0.00,2,2,0,2,43388,50000,2558,50000,20,20,0,20,0.00,0.00,0.00,0.00
2013-08-11 17:40:00,2,40626,20,0.00,2,2,0,2,18659,50000,11564,47000,20,20,0,20,0.00,0.00,0.00,0.00
2013-08-11 17:50:00,2,32693,6,0.00,2,2,0,2,25507,37817,4315,34649,0,20,9,0,0.00,0.00,0.00,0.00
2013-08-11 18:00:00,2,40297,0,0.00,2,2,0,2,33831,47853,4750,38588,0,0,0,0,0.00,0.00,0.00,0.00
2013-08-11 18:10:00,2,44036,0,0.00,2,2,0,2,38835,49584,2740,44269,0,0,0,0,0.00,0.00,0.00,0.00
2013-08-11 18:20:00,2,49597,0,0.00,2,2,0,2,46321,50000,1097,50000,0,0,0,0,0.00,0.00,0.00,0.00
2013-08-11 18:30:00,2,48018,0,0.00,2,2,0,2,42298,50000,2390,48773,0,0,0,0,0.00,0.00,0.00,0.00
2013-08-11 18:40:00,2,49170,0,0.00,2,2,0,2,45820,50000,1233,49634,0,0,0,0,0.00,0.00,0.00,0.00
2013-08-11 18:50:00,2,48780,0,0.00,2,2,0,2,44040,50000,2163,50000,0,0,0,0,0.00,0.00,0.00,0.00
2013-08-11 19:00:00,2,49978,0,0.00,0,2,1,2,49781,50000,66,50000,0,0,0,0,0.00,0.00,0.00,0.00
2013-08-11 19:10:00,0,49846,0,0.00,0,2,1,0,49044,50000,319,50000,0,0,0,0,0.00,0.00,0.00,0.00
2013-08-11 19:20:00,1,43089,0,0.00,0,2,1,0,36797,47163,2874,43320,0,0,0,0,0.00,0.00,0.00,0.00
2013-08-11 19:30:00,2,45094,0,0.00,2,2,0,2,35729,50000,4993,47071,0,0,0,0,0.00,0.00,0.00,0.00
2013-08-11 19:40:00,2,46898,0,0.00,0,2,1,2,43311,50000,2018,47152,0,0,0,0,0.00,0.00,0.00,0.00
2013-08-11 19:50:00,1,45672,0,0.00,0,2,1,2,39573,50000,4061,46197,0,0,0,0,0.00,0.00,0.00,0.00
2013-08-11 20:00:00,0,47525,0,0.00,0,0,0,0,35953,50000,4486,49620,0,0,0,0,0.00,0.00,0.00,0.00
2013-08-11 20:10:00,0,48420,0,0.00,0,0,0,0,42954,50000,2283,49620,0,0,0,0,0.00,0.00,0.00,0.00
2013-08-11 20:20:00,0,47001,0,0.00,0,0,0,0,41382,50000,3578,49670,0,0,0,0,0.00,0.00,0.00,0.00
2013-08-11 20:30:00,0,49509,0,0.00,0,0,0,0,47455,50000,983,50000,0,0,0,0,0.00,0.00,0.00,0.00
2013-08-11 20:40:00,0,48859,0,0.00,0,0,0,0,46463,50000,1420,49492,0,0,0,0,0.00,0.00,0.00,0.00
2013-08-11 20:50:00,0,45873,0,0.00,0,0,0,0,39732,50000,3492,46102,0,0,0,0,0.00,0.00,0.00,0.00
2013-08-11 21:00:00,0,48073,0,0.00,0,0,0,0,42499,50000,2706,50000,0,0,0,0,0.00,0.00,0.00,0.00
2013-08-11 21:10:00,0,48298,0,0.00,0,0,0,0,42124,50000,2479,49826,0,0,0,0,0.00,0.00,0.00,0.00
2013-08-11 21:20:00,0,49343,0,0.00,0,0,0,0,47551,50000,914,50000,0,0,0,0,0.00,0.00,0.00,0.00
2013-08-11 21:30:00,0,49216,0,0.00,0,0,0,0,46953,50000,1180,50000,0,0,0,0,0.00,0.00,0.00,0.00
2013-08-11 21:40:00,0,42219,35,0.53,0,0,0,0,29467,50000,7129,43902,0,61,28,51,0.00,1.75,0.68,0.10
2013-08-11 21:50:00,0,25978,61,3.37,0,0,0,0,19401,35352,5208,26050,61,61,0,61,1.20,4.45,1.23,4.03
2013-08-11 22:00:00,0,37167,61,0.62,0,0,0,0,27154,41965,3845,38260,61,61,0,61,0.00,2.20,0.70,0.35
2013-08-11 22:10:00,0,39417,20,0.01,0,0,0,0,30557,49220,6021,40370,0,61,26,0,0.00,0.05,0.02,0.00
2013-08-11 22:20:00,0,39697,0,0.00,0,0,0,0,32411,48675,4436,40310,0,0,0,0,0.00,0.00,0.00,0.00
2013-08-11 22:30:00,0,38343,0,0.00,0,0,0,0,29316,46975,5044,37701,0,0,0,0,0.00,0.00,0.00,0.00
2013-08-11 22:40:00,0,35891,0,0.00,0,0,0,0,29972,41460,3887,34940,0,0,0,0,0.00,0.00,0.00,0.00
2013-08-11 22:50:00,0,27810,33,0.16,0,0,0,0,21775,34133,4241,28486,0,61,27,51,0.00,0.30,0.13,0.23
2013-08-11 23:00:00,0,27508,53,1.19,0,0,0,0,22347,32824,3886,27946,51,61,4,51,0.25,3.90,1.08,0.75
2013-08-11 23:10:00,0,16692,61,6.28,0,0,0,0,11008,20897,3372,16843,61,62,0,61,1.55,11.90,3.35,6.68
2013-08-11 23:20:00,0,17459,61,6.30,0,0,0,0,13599,20499,2141,17670,61,62,0,61,3.80,10.10,2.12,5.38
2013-08-11 23:30:00,0,23415,61,1.63,0,0,0,0,19538,28298,2944,23990,61,61,0,61,0.00,5.90,1.79,0.65
2013-08-11 23:40:00,0,24386,61,2.77,0,0,0,0,17166,31944,4285,24604,61,61,0,61,0.00,8.75,2.50,2.48
2013-08-11 23:50:00,0,20317,61,1.96,0,0,0,0,16512,23678,1999,20024,61,61,0,61,0.30,4.25,1.22,1.55
